Content
SEND FEEDBACK

Daily
Averages
Monthly
Summary
United States of America

VALLEY PARK, MISSOURI


Home > North America > United States > Missouri
Elevation: 456 feet     Latitude: 38 33N     Longitude: 090 30W

WEATHER
 
SELECT A DAY
Number of Records: 206,556;   Date Range: 1/1/95 - 10/23/14
 
SHARE

PRINT THIS DATA

[ ← Previous Day ]
WEATHER ALMANAC - JANUARY 11, 2013
[ Next Day → ]
[ °C ]   °F
Weather ElementAverageHighLow
Temperature56.2 °F64 °F (2:51 pm)51.1 °F (4:51 am)
Dewpoint46.3 °F50 °F (1:51 am)45 °F (6:51 am)
Humidity70.6 %86 % (1:51 am)52 % (2:51 pm)
Barometer29.82 in29.88 in (8:27 am)29.78 in (3:51 pm)
Wind Speed12.6 mph19.6 mph (7:51 pm)
Wind Gust26.5 mph (7:51 pm)
Weather ElementAverage
Visibility10 mi
Wind DirectionSSW (195.2 °)

Weather ElementTotal
Precipitation---
Heating Degree Days7.5 (Base 65)
Growing Degree Days7.6 (Base 50)
Averaged from 25 records on January 11, 2013
WEATHER CONDITIONS BREAKOUT
WIND DIRECTION BREAKOUT
WEATHER BY HOUR - JANUARY 11, 2013
[ °C ]   °F
Local TimeTemperatureDewpointHumidityBarometerVisibilityWind DirectionWind SpeedGust SpeedPrecipitationEventsConditions
1:51 AM54.0 °F50.0 °F86 %29.81 in10.0 miSW (230°)10.4 mphMostly Cloudy
2:51 AM54.0 °F48.9 °F83 %29.83 in10.0 miSW (230°)9.2 mphMostly Cloudy
3:51 AM54.0 °F48.0 °F80 %29.82 in10.0 miWSW (240°)10.4 mphScattered Clouds
4:51 AM51.1 °F46.9 °F86 %29.83 in10.0 miSSW (210°)10.4 mphScattered Clouds
5:51 AM51.1 °F46.0 °F83 %29.84 in10.0 miSW (220°)10.4 mphMostly Cloudy
6:27 AM51.8 °F46.4 °F82 %29.84 in10.0 miSW (220°)10.4 mphScattered Clouds
6:51 AM51.1 °F45.0 °F80 %29.86 in10.0 miSW (220°)10.4 mphMostly Cloudy
7:51 AM51.1 °F45.0 °F80 %29.87 in10.0 miSSW (210°)8.1 mphMostly Cloudy
8:27 AM51.8 °F46.4 °F82 %29.88 in10.0 miSouth (190°)9.2 mphMostly Cloudy
8:40 AM53.6 °F46.4 °F77 %29.88 in10.0 miSSW (200°)10.4 mphMostly Cloudy
9:51 AM54.0 °F46.0 °F75 %29.88 in10.0 miSSW (210°)11.5 mphMostly Cloudy
10:51 AM55.0 °F45.0 °F69 %29.86 in10.0 miSSW (200°)11.5 mph20.7 mphMostly Cloudy
11:51 AM57.9 °F46.0 °F65 %29.83 in10.0 miSouth (170°)11.5 mphMostly Cloudy
12:51 PM62.1 °F46.0 °F56 %29.81 in10.0 miSouth (180°)16.1 mph20.7 mphMostly Cloudy
1:51 PM62.1 °F46.0 °F56 %29.79 in10.0 miSouth (180°)15.0 mph23.0 mphMostly Cloudy
2:51 PM64.0 °F46.0 °F52 %29.79 in10.0 miSouth (170°)15.0 mph21.9 mphMostly Cloudy
3:51 PM63.0 °F45.0 °F52 %29.78 in10.0 miSSE (150°)16.1 mph23.0 mphMostly Cloudy
4:51 PM61.0 °F46.0 °F58 %29.78 in10.0 miSSE (160°)15.0 mphMostly Cloudy
5:51 PM60.1 °F46.0 °F60 %29.79 in10.0 miSouth (170°)15.0 mph24.2 mphMostly Cloudy
6:51 PM57.9 °F46.0 °F65 %29.80 in10.0 miSouth (180°)16.1 mph25.3 mphMostly Cloudy
7:51 PM57.0 °F46.0 °F67 %29.80 in10.0 miSouth (170°)19.6 mph26.5 mphMostly Cloudy
8:51 PM57.0 °F46.0 °F67 %29.81 in10.0 miSouth (180°)12.7 mph21.9 mphMostly Cloudy
9:51 PM57.0 °F46.0 °F67 %29.81 in10.0 miSSW (200°)15.0 mphMostly Cloudy
10:51 PM55.9 °F46.0 °F69 %29.82 in10.0 miSouth (190°)10.4 mphMostly Cloudy
11:51 PM57.0 °F46.0 °F67 %29.81 in10.0 miSSW (200°)16.1 mph21.9 mphMostly Cloudy
Hourly data recorded from KSTL, located miles away from Valley Park, Missouri







STORIES FROM OUR PARTNERS